Bryce Canyon, UT

8:40 AM MST on December 17, 2017 (GMT -0700)
Bryce Canyon

Weather History for KBCE - March, 2014

Change the Weather History Date:

Friday, March 7, 2014

  Actual Average Record
Temperature  
Mean Temperature 34 °F -  
Max Temperature 42 °F 43 °F 61 °F (1972)
Min Temperature 27 °F 17 °F -4 °F (2017)
Degree Days  
Heating Degree Days 30    
Moisture  
Dew Point 27 °F    
Average Humidity 78    
Maximum Humidity 96    
Minimum Humidity 45    
Precipitation  
Precipitation 0.06 in - - ()
Sea Level Pressure  
Sea Level Pressure 29.96 in    
Wind  
Wind Speed 16 mph (NW)    
Max Wind Speed 29 mph    
Max Gust Speed 44 mph    
Visibility 9 miles    
Events Snow    
Averages and records for this station are not official NWS values.
T = Trace of Precipitation, MM = Missing Value Source: NWS Daily Summary

Daily Weather History Graph

Daily Weather History Graph

Search for Another Location

Airport or City:

Trip Planner

Search our weather history database for the weather conditions in past years. The results will help you decide how hot, cold, wet, or windy it might be!

Date:

Astronomy

Mar. 07, 2014 Rise Set
Actual Time 6:51 AM MST 6:28 PM MST
Civil Twilight 6:25 AM MST 6:54 PM MST
Nautical Twilight 5:54 AM MST 7:24 PM MST
Astronomical Twilight 5:24 AM MST 7:55 PM MST
Moon 10:54 AM MST (3/7) 12:30 AM MST (3/7)
Length of Visible Light 12h 29m
Length of Day
11h 36m
Waxing Crescent, 42% of the Moon is Illuminated
Mar 7
Waxing Crescent
Mar 8
First Quarter
Mar 16
Full
Mar 23
Last Quarter
Mar 30
New

Hourly Weather History & Observations

Time (MST) Temp. Windchill Dew Point Humidity Pressure Visibility Wind Dir Wind Speed Gust Speed Precip Events Conditions
12:53 AM 36.0 °F 23.2 °F 30.9 °F 82% 29.78 in 6.0 mi WNW 28.8 mph 43.7 mph 0.00 in Snow Light Snow
1:01 AM 34.0 °F 21.8 °F 30.9 °F 89% 29.98 in 1.8 mi NW 23.0 mph 39.1 mph 0.00 in Snow Light Snow
1:08 AM 34.0 °F 24.2 °F 30.9 °F 89% 29.98 in 1.5 mi NW 15.0 mph 31.1 mph 0.01 in Snow Light Snow
1:11 AM 34.0 °F 23.4 °F 32.0 °F 92% 29.98 in 3.0 mi NW 17.3 mph 24.2 mph 0.01 in Snow Light Snow
1:51 AM 33.8 °F 25.8 °F 32.0 °F 93% 29.99 in 10.0 mi West 10.4 mph - 0.04 in Snow Light Snow
1:53 AM 34.0 °F 25.5 °F 32.0 °F 92% 29.80 in 10.0 mi West 11.5 mph - 0.04 in Snow Light Snow
2:21 AM 34.0 °F 23.4 °F 32.0 °F 92% 30.01 in 3.0 mi WNW 17.3 mph - 0.01 in Snow Light Snow
2:29 AM 33.1 °F 23.9 °F 30.9 °F 92% 30.00 in 2.5 mi NW 12.7 mph 24.2 mph 0.02 in Snow Light Snow
2:37 AM 34.0 °F 23.0 °F 28.9 °F 82% 29.99 in 7.0 mi NW 18.4 mph 23.0 mph 0.02 in Snow Light Snow
2:53 AM 34.0 °F 26.0 °F 32.0 °F 92% 29.79 in 10.0 mi NNE 10.4 mph 25.3 mph 0.02 in   Overcast
3:12 AM 33.1 °F 25.5 °F 32.0 °F 96% 29.98 in 10.0 mi NNW 9.2 mph - N/A   Overcast
3:40 AM 33.1 °F 23.9 °F 30.9 °F 92% 29.99 in 10.0 mi NW 12.7 mph - N/A   Overcast
3:49 AM 33.8 °F 25.8 °F 30.2 °F 87% 29.98 in 10.0 mi NNW 10.4 mph - N/A   Mostly Cloudy
3:53 AM 33.1 °F 26.1 °F 30.9 °F 92% 29.79 in 10.0 mi NNW 8.1 mph - N/A   Overcast
4:04 AM 33.1 °F 26.1 °F 30.9 °F 92% 29.98 in 10.0 mi NNW 8.1 mph - N/A   Overcast
4:11 AM 33.1 °F 24.9 °F 30.9 °F 92% 29.99 in 10.0 mi NW 10.4 mph - N/A   Overcast
4:23 AM 32.0 °F 23.6 °F 30.9 °F 96% 29.98 in 10.0 mi WNW 10.4 mph - N/A   Overcast
4:53 AM 32.0 °F 22.5 °F 30.0 °F 92% 29.81 in 10.0 mi WNW 12.7 mph - N/A   Mostly Cloudy
5:08 AM 32.0 °F 22.1 °F 30.0 °F 92% 30.00 in 10.0 mi WNW 13.8 mph 20.7 mph N/A   Overcast
5:53 AM 30.9 °F 19.8 °F 28.9 °F 92% 29.86 in 10.0 mi WNW 16.1 mph - N/A   Mostly Cloudy
6:53 AM 30.0 °F 20.0 °F 27.0 °F 88% 29.89 in 10.0 mi NW 12.7 mph - N/A   Clear
7:53 AM 30.9 °F 22.2 °F 28.0 °F 89% 29.91 in 10.0 mi WNW 10.4 mph - N/A   Clear
8:53 AM 34.0 °F 25.5 °F 30.0 °F 85% 29.93 in 10.0 mi WNW 11.5 mph - N/A   Mostly Cloudy
9:53 AM 34.0 °F 26.0 °F 28.0 °F 79% 29.96 in 10.0 mi North 10.4 mph - N/A   Overcast
10:53 AM 36.0 °F 26.7 °F 25.0 °F 64% 29.94 in 10.0 mi NNE 15.0 mph - N/A   Overcast
11:53 AM 37.0 °F 31.6 °F 26.1 °F 65% 29.94 in 10.0 mi North 6.9 mph 19.6 mph N/A   Overcast
12:53 PM 37.0 °F 29.3 °F 25.0 °F 62% 29.94 in 10.0 mi NW 11.5 mph 17.3 mph N/A   Overcast
1:42 PM 41.0 °F 31.4 °F 25.0 °F 53% 30.06 in 10.0 mi North 21.9 mph 28.8 mph N/A   Scattered Clouds
1:53 PM 41.0 °F 31.9 °F 26.1 °F 55% 29.91 in 10.0 mi NNW 19.6 mph 28.8 mph N/A   Scattered Clouds
2:53 PM 39.9 °F 31.4 °F 21.9 °F 49% 29.93 in 10.0 mi North 16.1 mph 31.1 mph N/A   Partly Cloudy
3:53 PM 42.1 °F 33.9 °F 21.9 °F 45% 29.93 in 10.0 mi NNE 17.3 mph - N/A   Clear
4:12 PM 41.0 °F 32.2 °F 21.9 °F 47% 30.07 in 10.0 mi NW 18.4 mph - N/A   Partly Cloudy
4:53 PM 39.0 °F 29.9 °F 21.9 °F 50% 29.95 in 10.0 mi NNE 17.3 mph - N/A   Overcast
5:53 PM 37.9 °F 30.5 °F 21.9 °F 53% 29.98 in 10.0 mi North 11.5 mph - N/A   Overcast
6:53 PM 30.9 °F 23.5 °F 21.0 °F 67% 30.02 in 10.0 mi NNW 8.1 mph - N/A   Clear
7:53 PM 28.9 °F 21.1 °F 21.0 °F 72% 30.05 in 10.0 mi WNW 8.1 mph - N/A   Clear
8:53 PM 28.0 °F 20.8 °F 19.9 °F 72% 30.07 in 10.0 mi NW 6.9 mph - N/A   Clear
9:53 PM 27.0 °F 18.0 °F 19.0 °F 72% 30.09 in 10.0 mi North 9.2 mph - N/A   Clear
10:53 PM 28.0 °F 17.5 °F 18.0 °F 66% 30.09 in 10.0 mi NNW 12.7 mph - N/A   Clear
11:53 PM 27.0 °F 16.7 °F 19.0 °F 72% 30.11 in 10.0 mi West 11.5 mph - N/A   Scattered Clouds